Hourly Data Report for May 23, 2022

MUSKOKA
ONTARIO
Current Station Operator: NAVCAN

44°58'29.000" N
79°18'12.000" W
281.90 m
6115529
71532
YQA

Download Data

Hourly Data (May 2022)
Hourly Data Report for May 23, 2022
TIME
LST
Temp Definition
°C
Dew Point Definition
°C
Rel Hum Definition
%
Precip. Amount Definition
mm

Wind Dir Definition
10's deg

Wind Spd Definition
km/h
Visibility Definition
km
Stn Press Definition
kPa
Hmdx Definition


Wind Chill Definition


Weather Definition


00:00 2.6 2.2 97 0.0   0 16.1 99.07     LegendNANA
01:00 1.6 1.3 98 0.0   0 16.1 99.13     LegendNANA
02:00 0.9 0.6 98 0.0   0 16.1 99.14     LegendNANA
03:00 1.2 1.0 99 0.0 27 4 16.1 99.17     LegendNANA
04:00 -0.1 -0.4 98 0.0   0 16.1 99.19     LegendNANA
05:00 -0.2 -0.5 98 0.0   0 4.0 99.22     Fog
06:00 2.5 2.4 99 0.0 35 4 16.1 99.28     LegendNANA
07:00 6.4 4.8 89 0.0 33 8 16.1 99.33     LegendNANA
08:00 9.7 5.8 76 0.0 30 8 16.1 99.35     LegendNANA
09:00 12.6 4.7 58 0.0 LegendMM 15 16.1 99.35     LegendNANA
10:00 13.9 0.2 39 0.0 32 15 16.1 99.35     LegendNANA
11:00 13.4 0.5 41 0.0 31 15 16.1 99.35     LegendNANA
12:00 14.0 0.5 40 0.0 32 13 16.1 99.32     LegendNANA
13:00 14.8 0.8 38 0.0 LegendMM 5 16.1 99.28     LegendNANA
14:00 15.3 0.4 36 0.0 33 15 16.1 99.25     LegendNANA
15:00 15.0 0.6 37 0.0 32 15 16.1 99.22     LegendNANA
16:00 14.8 1.0 39 0.0 32 17 16.1 99.19     LegendNANA
17:00 15.1 2.1 41 0.0 30 11 16.1 99.19     LegendNANA
18:00 15.2 1.6 40 0.0 32 15 16.1 99.17     LegendNANA
19:00 14.6 1.9 42 0.0 33 17 16.1 99.19     LegendNANA
20:00 11.0 3.4 59 0.0 32 4 16.1 99.22     LegendNANA
21:00 8.2 4.1 75 0.0 33 4 16.1 99.25     LegendNANA
22:00 6.3 4.1 86 0.0 33 4 16.1 99.28     LegendNANA
23:00 4.7 3.5 92 0.0 34 4 16.1 99.25     LegendNANA

Notes on Data Quality.

Legend

  • E = Estimated
  • M = Missing
  • NA = Not Available*
  • [empty] = Indicates an unobserved value
Date modified: